Change the Weather History Date:

Friday, September 6, 2013

  Actual Average Record
Temperature  
Mean Temperature 98 °F -  
Max Temperature 109 °F 98 °F - ()
Min Temperature 87 °F 80 °F - ()
Cooling Degree Days 33    
Growing Degree Days 48 (Base 50)    
Moisture  
Dew Point 72 °F    
Average Humidity 45    
Maximum Humidity 62    
Minimum Humidity 22    
Precipitation  
Precipitation 0.00 in 0.00 in - ()
Sea Level Pressure  
Sea Level Pressure 29.56 in    
Wind  
Wind Speed 9 mph ()    
Max Wind Speed 17 mph    
Max Gust Speed -    
Visibility 4.9 miles    
Events      
T = Trace of Precipitation, MM = Missing Value Source: Averaged Metar Reports

Daily Weather History Graph

Daily Weather History Graph

Search for Another Location

Airport or City:

Trip Planner

Search our weather history database for the weather conditions in past years. The results will help you decide how hot, cold, wet, or windy it might be!

Date:

Astronomy

Sep. 06, 2013 Rise Set
Actual Time 6:01 AM GST 6:32 PM GST
Civil Twilight 5:37 AM GST 6:55 PM GST
Nautical Twilight 5:10 AM GST 7:22 PM GST
Astronomical Twilight 4:43 AM GST 7:49 PM GST
Moon 6:38 AM GST (9/6) 6:56 PM GST (9/6)
Length of Visible Light 13h 17m
Length of Day
12h 31m
New Moon, 1% of the Moon is Illuminated
Sep 6
New Moon
Sep 12
First Quarter
Sep 19
Full
Sep 27
Last Quarter
Oct 5
New

Hourly Weather History & Observations

Time (GST) Temp. Heat Index Dew Point Humidity Pressure Visibility Wind Dir Wind Speed Gust Speed Precip Events Conditions
12:00 AM 93.2 °F 105.0 °F 75.2 °F 56% 29.53 in - East 9.2 mph - N/A   Clear
1:00 AM 91 °F - 75 °F 52% 29.54 in 6 mi East 9.2 mph - -  
1:00 AM 91.4 °F 102.5 °F 75.2 °F 59% 29.53 in - East 9.2 mph - N/A   Clear
2:00 AM 91.4 °F 102.5 °F 75.2 °F 59% 29.53 in - East 5.8 mph - N/A   Clear
3:00 AM 89.6 °F 99.8 °F 75.2 °F 62% 29.53 in - East 4.6 mph - N/A   Clear
4:00 AM 90 °F - 74 °F 52% 29.55 in 6 mi East 6.9 mph - -  
4:00 AM 89.6 °F 99.8 °F 75.2 °F 62% 29.53 in - East 6.9 mph - N/A   Clear
5:00 AM 89.6 °F 98.2 °F 73.4 °F 59% 29.56 in - East 6.9 mph - N/A   Clear
6:00 AM 87.8 °F 95.6 °F 73.4 °F 62% 29.56 in - East 9.2 mph - N/A   Clear
7:00 AM 88 °F - 74 °F 55% 29.60 in 5 mi East 9.2 mph - -   Widespread Dust
7:00 AM 87.8 °F 95.6 °F 73.4 °F 62% 29.59 in 5.0 mi East 9.2 mph - N/A   Unknown
8:00 AM 91.4 °F 100.1 °F 73.4 °F 55% 29.59 in 5.6 mi East 12.7 mph - N/A   Unknown
9:00 AM 96.8 °F 105.1 °F 71.6 °F 44% 29.62 in - ESE 13.8 mph - N/A   Clear
10:00 AM 100.4 °F 106.3 °F 68.0 °F 35% 29.62 in - ESE 15.0 mph - N/A   Clear
11:00 AM 102.2 °F 108.4 °F 68.0 °F 33% 29.59 in - SE 13.8 mph - N/A   Clear
12:00 PM 105.8 °F 109.8 °F 64.4 °F 26% 29.59 in - SE 10.4 mph - N/A   Clear
1:00 PM 109.4 °F 112.8 °F 62.6 °F 22% 29.56 in - SE 10.4 mph - N/A   Clear
2:00 PM 105.8 °F 121.3 °F 75.2 °F 38% 29.53 in 5.0 mi NNE 11.5 mph - N/A   Unknown
3:00 PM 104.0 °F 118.9 °F 75.2 °F 40% 29.53 in 4.3 mi North 13.8 mph - N/A   Unknown
4:00 PM 102.2 °F 116.3 °F 75.2 °F 42% 29.53 in 4.3 mi NNE 17.3 mph - N/A   Unknown
5:00 PM 102.2 °F 116.3 °F 75.2 °F 42% 29.53 in 3.7 mi North 16.1 mph - N/A   Unknown
6:00 PM 100.4 °F 109.3 °F 71.6 °F 39% 29.53 in 3.7 mi NNE 15.0 mph - N/A   Unknown
7:00 PM 100 °F - 70 °F 29% 29.56 in 5 mi NE 12.7 mph - -   Widespread Dust
7:00 PM 100.4 °F 107.8 °F 69.8 °F 37% 29.53 in 5.0 mi NE 12.7 mph - N/A   Unknown
8:00 PM 100.4 °F 107.8 °F 69.8 °F 37% 29.56 in - NE 8.1 mph - N/A   Clear
9:00 PM 100.4 °F 106.3 °F 68.0 °F 35% 29.59 in - East 5.8 mph - N/A   Clear
10:00 PM 100.4 °F 104.9 °F 66.2 °F 33% 29.59 in - East 11.5 mph - N/A   Clear
11:00 PM 98.6 °F 104.1 °F 68.0 °F 37% 29.59 in - ESE 10.4 mph - N/A   Clear